Theta_e
313 313 313 313 313 313 311 311 310 310 310 310 310 311 311 312 311 312 312 311 312 314 314 314 314 314 315 315 316 316 314 307 304 301 300 303 309 315 319 322 323 325 326 318 311 306 302 301 302 305 300 299 299 299 302 304 303 301 292 289 288 289 290 292 294 293 292 294 297 299 300 299 297 300 302 304 302 310 323 330 334 337 337 338 340 343 343 340
312 312 313 312 312 313 313 313 313 313 312 311 310 311 311 311 311 312 312 310 310 311 312 314 314 314 315 315 315 316 311 305 301 301 300 309 315 319 319 321 324 325 325 311 306 304 301 299 301 303 299 296 302 298 303 299 305 298 291 289 290 290 293 296 296 297 296 297 299 300 298 299 301 300 303 302 300 307 324 329 333 332 336 339 340 341 340 338
312 312 312 312 312 312 312 312 312 312 312 312 313 311 310 311 311 312 311 311 310 311 312 312 314 314 315 314 315 315 307 302 301 297 302 318 319 318 319 321 323 324 319 309 306 306 302 301 302 303 298 296 298 298 301 299 303 299 294 289 292 293 294 297 298 299 299 299 298 299 299 299 302 302 305 302 298 313 320 325 327 330 330 335 337 339 338 337
311 311 311 311 311 312 312 311 311 311 311 312 311 312 312 310 311 311 311 311 311 312 310 311 312 314 315 314 315 311 305 301 295 300 307 321 327 324 321 320 321 323 317 309 305 306 304 301 299 300 299 297 297 300 297 300 299 297 296 293 292 295 294 297 298 299 300 300 299 298 299 300 301 302 304 300 299 300 313 328 328 329 332 334 337 338 337 336
311 310 310 310 310 310 310 311 311 311 311 311 311 311 311 311 310 311 311 311 312 312 310 310 311 313 314 314 314 309 302 289 295 308 312 328 330 330 327 323 321 319 310 305 304 302 301 299 298 299 297 293 297 297 297 299 302 299 297 298 296 295 295 299 300 301 300 302 298 297 296 298 302 302 301 301 298 293 300 316 331 335 335 335 335 336 337 335
311 310 310 310 310 310 309 309 310 310 310 310 310 310 310 311 310 310 311 311 312 311 310 310 311 311 313 313 311 306 297 281 299 303 320 321 325 330 327 324 324 311 306 303 302 300 299 297 297 294 293 293 295 294 295 300 301 294 297 296 297 299 296 300 300 301 301 300 298 297 298 299 299 299 300 300 299 298 303 323 336 337 338 338 338 337 335 334
310 310 309 310 310 310 311 309 309 309 309 309 310 309 310 310 310 310 311 311 311 310 310 310 310 311 312 312 308 303 296 297 302 306 319 321 316 316 325 325 325 310 307 302 300 299 297 295 296 294 295 293 293 295 298 298 300 297 294 296 298 298 299 302 302 302 299 298 298 299 301 299 298 297 301 299 299 302 304 333 337 338 339 339 336 336 335 335
310 310 310 310 310 311 311 311 311 309 309 309 309 309 309 310 310 311 311 311 311 310 310 309 310 310 311 307 300 296 295 295 303 308 316 318 311 311 315 322 314 307 305 302 300 298 297 294 294 296 293 292 293 296 298 297 297 295 295 297 298 299 300 301 302 302 301 300 301 299 299 299 299 299 300 299 299 301 308 336 338 338 338 337 336 335 335 335
310 310 310 310 310 310 310 310 310 311 309 309 309 309 309 310 310 310 310 311 311 310 310 309 309 309 311 305 299 293 292 302 307 308 310 307 307 307 307 315 315 306 303 303 301 299 297 294 295 297 291 294 297 295 297 295 292 296 296 298 298 299 299 300 301 302 302 302 301 298 298 299 299 300 300 300 300 301 329 336 337 337 335 335 335 335 335 334
309 309 310 310 310 310 310 310 310 310 311 310 309 309 309 309 309 309 310 310 310 310 310 310 309 309 305 300 297 289 298 306 308 309 308 307 306 306 306 306 312 309 302 302 301 299 297 296 297 299 298 297 298 294 296 296 292 297 297 297 297 299 300 300 299 300 300 299 299 298 298 298 300 300 294 298 300 305 333 334 336 335 334 334 335 335 334 331
309 309 309 309 310 309 309 309 310 310 310 310 309 309 308 309 309 309 309 310 309 310 309 309 309 307 300 299 292 288 304 304 306 307 307 306 305 304 303 305 305 303 306 301 300 301 300 299 299 299 298 295 297 294 295 295 299 299 297 296 296 298 299 300 300 299 297 298 297 299 298 299 299 299 296 298 302 305 330 333 334 333 333 334 334 329 325 326
309 309 310 310 309 309 309 309 309 310 310 310 310 309 309 308 308 308 308 309 309 310 309 309 309 305 301 297 292 292 306 305 307 306 306 306 304 305 305 305 305 304 303 301 300 301 302 301 301 298 291 297 292 296 295 298 297 297 297 293 295 295 295 298 297 300 299 297 298 298 297 295 296 295 297 299 301 305 329 331 333 332 333 329 325 325 326 326
309 309 309 309 309 309 309 309 309 309 309 309 309 309 309 308 308 308 308 307 308 309 309 310 308 305 299 289 293 301 304 305 305 306 306 306 305 306 305 306 305 306 305 303 301 303 303 302 301 296 298 295 293 290 295 298 297 298 296 293 293 292 291 296 298 299 298 297 298 299 288 288 292 295 298 300 301 302 327 329 331 329 324 324 324 324 325 326
309 309 309 309 309 309 309 309 309 309 308 308 308 309 308 308 308 308 307 307 308 308 309 309 306 302 297 290 297 302 304 304 305 304 303 305 303 303 304 305 305 305 306 304 304 303 303 302 301 299 300 295 292 299 297 295 297 290 294 294 287 287 285 293 296 297 296 299 298 299 289 287 292 295 298 304 305 302 315 328 327 324 322 322 324 324 324 326
309 309 308 309 308 308 309 308 308 308 308 308 308 308 308 308 308 308 308 307 307 308 308 308 305 298 291 292 301 303 308 304 299 299 302 300 300 300 300 303 303 305 305 304 303 303 303 302 300 296 293 299 298 295 291 290 291 291 288 285 287 287 284 293 297 297 295 298 298 297 290 290 292 295 297 301 305 301 320 323 322 323 324 323 322 322 321 323
309 308 309 308 308 308 308 309 308 308 308 308 308 307 308 308 308 308 308 307 308 307 306 301 300 297 291 287 294 307 301 296 299 303 304 304 302 298 301 302 303 304 304 303 304 304 303 301 296 295 295 296 293 289 287 286 286 289 286 284 285 285 286 291 295 296 298 298 297 297 288 291 293 296 297 312 306 312 320 319 322 324 323 321 321 321 321 323
308 308 308 308 308 308 308 307 307 307 307 307 307 307 307 307 307 307 307 307 306 305 302 297 299 299 284 296 303 295 295 298 302 301 302 306 304 302 301 301 300 301 302 302 302 301 300 297 298 297 296 291 290 289 283 281 281 283 286 284 286 287 286 286 291 295 296 297 294 295 292 291 295 305 310 313 313 316 317 319 321 322 322 321 321 321 321 322
308 308 308 308 308 307 307 307 306 307 306 306 305 305 303 306 307 306 305 305 304 303 302 303 299 293 287 296 289 292 298 298 300 301 302 303 305 303 301 299 300 300 299 297 299 296 297 293 295 288 291 291 289 287 283 281 283 281 284 284 285 287 288 288 289 292 296 295 294 293 292 293 294 313 313 315 316 316 317 319 319 319 319 319 320 321 321 322
308 308 308 307 307 307 307 306 306 306 306 306 305 305 305 305 302 300 299 299 294 290 285 287 290 278 277 287 294 296 297 300 302 301 299 301 303 304 303 303 301 297 293 292 291 294 294 292 294 288 287 288 288 288 286 286 288 287 287 286 286 285 286 286 291 295 296 292 291 292 290 292 302 312 314 315 316 315 316 317 317 317 318 319 321 321 322 322
308 307 308 307 307 306 307 307 306 305 305 302 299 299 295 287 287 288 296 296 291 290 290 291 293 291 291 290 290 295 301 302 296 299 300 303 302 300 300 300 298 296 292 288 290 292 294 286 285 286 287 289 290 290 289 290 290 290 290 288 287 287 288 291 292 294 296 293 291 292 293 293 298 312 313 315 315 315 314 314 315 316 317 319 321 321 321 322
308 307 307 307 306 306 307 307 306 304 305 301 298 294 285 285 281 280 288 289 293 294 292 292 293 292 290 293 294 295 292 294 297 296 298 304 302 299 296 296 292 288 289 291 290 294 293 285 286 288 290 290 291 291 290 290 291 290 289 288 287 288 287 291 292 295 296 293 290 292 293 293 301 312 314 315 314 313 313 314 315 316 317 319 320 320 320 321
307 307 307 307 307 307 307 307 306 305 304 299 296 292 292 292 294 296 292 284 290 293 293 293 295 292 296 295 297 297 296 290 292 295 300 300 298 294 294 293 290 286 289 290 289 287 286 285 288 290 293 291 291 291 291 290 289 290 288 286 286 286 290 293 294 296 295 293 290 290 291 292 299 312 314 314 314 315 316 316 316 316 316 317 318 319 319 320
307 307 306 307 307 307 307 307 305 304 298 294 292 293 293 297 301 301 297 290 286 292 290 290 289 290 292 296 297 298 290 288 287 293 296 299 295 295 294 291 289 289 289 289 285 285 283 286 290 292 293 291 289 290 290 290 289 287 287 285 284 287 287 284 292 294 295 293 289 290 290 290 304 312 313 315 315 315 316 316 317 318 317 317 318 319 318 319
306 307 307 306 307 306 307 306 305 299 294 295 295 294 299 301 301 300 293 284 283 288 290 291 291 290 290 290 296 294 290 290 291 290 299 296 292 297 294 292 289 288 286 288 288 286 285 288 293 293 293 292 289 289 289 288 286 288 288 287 287 288 289 289 288 292 294 295 295 291 290 292 305 308 309 312 315 315 315 316 317 317 317 318 318 319 320 319
306 306 306 306 306 307 306 305 296 295 297 295 295 300 302 302 302 303 291 285 285 284 294 292 294 292 293 300 300 292 292 292 292 295 297 296 294 295 292 295 291 286 288 289 288 287 288 291 294 292 292 292 290 287 289 288 285 287 289 289 290 290 289 291 292 290 288 286 292 291 282 282 295 309 309 311 312 311 314 314 315 317 317 317 316 317 319 321
306 306 306 306 306 306 306 294 292 296 295 293 297 301 302 303 303 302 291 279 275 283 290 282 295 288 298 292 296 294 294 287 295 296 298 297 299 295 295 289 291 285 288 288 288 288 289 293 292 291 291 291 290 288 289 290 286 284 286 291 292 291 291 291 289 288 281 282 289 294 285 277 294 303 307 309 311 310 311 313 315 316 316 316 316 317 319 320
306 306 306 306 306 305 297 289 297 297 291 294 299 301 302 305 303 300 284 276 273 285 282 289 288 289 296 293 294 295 278 283 295 296 295 299 295 300 290 288 290 291 292 292 287 285 292 292 291 292 291 290 289 287 290 290 287 285 291 291 292 291 290 290 291 288 284 289 291 292 289 288 290 297 308 309 310 310 311 312 313 315 315 316 316 317 319 320
306 306 306 306 306 305 298 298 296 292 293 297 302 301 302 304 303 297 281 267 268 291 283 286 288 298 294 295 296 289 288 292 286 291 296 298 298 294 292 287 287 288 291 290 280 289 291 289 290 289 290 289 288 290 290 292 289 288 291 291 290 291 291 291 289 286 287 288 282 287 291 288 287 297 308 310 307 308 309 311 312 314 314 315 316 317 319 321
307 306 306 306 306 306 303 298 296 293 297 300 301 302 304 303 298 285 276 267 284 285 299 284 301 293 291 294 291 291 290 292 285 292 296 297 299 296 287 290 290 290 292 291 284 289 292 292 292 292 290 288 290 291 292 292 289 292 292 293 292 292 292 290 287 286 287 285 280 285 288 280 288 301 307 310 308 307 309 311 312 313 314 315 316 318 320 321
306 306 306 305 304 301 297 298 295 300 301 301 301 301 301 297 286 275 270 266 288 277 290 291 289 288 291 287 287 289 286 289 292 293 295 292 294 296 295 297 291 288 289 291 289 291 294 298 297 293 291 292 292 292 293 292 293 294 293 291 290 289 289 289 288 287 285 279 281 286 288 289 285 300 305 304 306 309 310 312 313 315 315 317 317 319 320 321
306 306 305 306 299 301 300 293 297 301 302 302 302 301 292 285 276 271 266 275 284 283 291 288 285 292 287 285 281 287 287 288 289 290 287 294 291 293 293 290 293 288 286 287 287 290 292 295 293 293 297 295 293 292 294 295 293 292 289 289 286 286 288 286 285 285 280 275 279 287 288 289 283 292 303 310 312 312 312 311 312 313 316 317 318 318 320 321
306 306 306 303 303 305 296 294 299 302 302 301 301 293 284 273 278 268 270 290 275 281 282 282 288 287 287 288 286 284 283 286 288 288 285 287 286 286 287 283 286 279 280 282 282 288 286 290 294 293 299 295 292 289 291 293 292 290 288 287 283 277 280 276 281 278 276 278 283 286 289 285 283 292 306 309 310 312 314 315 314 314 316 317 318 319 320 321
305 305 307 305 305 301 301 302 302 301 301 301 295 288 280 275 269 276 274 279 273 283 282 287 285 286 287 285 284 286 287 281 288 287 288 287 286 287 290 288 288 285 278 283 283 282 283 289 292 292 294 297 294 287 286 287 290 289 286 282 281 276 276 272 276 275 277 282 286 287 288 284 284 288 303 309 311 313 315 316 317 316 316 316 317 318 319 321
305 306 302 303 303 302 303 304 303 301 299 297 285 283 279 272 271 284 279 280 278 288 288 285 286 287 286 282 285 287 280 286 286 286 287 284 285 283 287 289 290 287 285 283 280 281 277 279 287 291 287 295 294 292 290 286 287 289 289 287 282 281 279 272 276 276 277 277 282 288 285 280 283 286 302 311 313 313 315 317 317 317 317 317 318 318 319 321
305 304 302 301 303 303 303 304 303 303 297 289 283 279 272 272 277 275 277 282 284 287 284 289 283 283 282 285 288 288 286 281 287 286 285 282 280 283 284 286 289 289 287 281 284 282 283 283 288 294 293 295 292 294 294 289 288 290 289 289 282 284 282 280 279 277 280 281 281 284 281 284 287 295 302 308 311 313 315 315 316 315 316 316 316 316 318 320
302 300 302 300 301 303 304 304 303 299 293 287 280 276 273 277 274 282 280 288 287 283 284 286 285 282 282 283 286 285 290 284 285 284 283 284 285 284 288 288 288 289 285 280 284 281 284 282 290 293 293 294 294 295 294 294 283 288 288 285 286 290 288 279 280 284 279 279 278 278 285 286 290 298 304 308 310 312 313 314 314 314 315 315 315 316 317 319
298 300 297 301 303 305 305 304 304 298 295 288 280 274 279 280 285 284 288 285 286 286 283 278 281 280 280 279 281 283 286 288 285 282 279 286 283 287 287 288 292 290 291 287 285 286 281 279 289 291 289 294 297 296 295 295 292 287 285 285 291 292 290 284 276 279 275 274 276 281 282 282 284 281 299 306 307 310 311 312 313 313 314 314 314 316 317 319
297 298 301 301 304 305 305 304 300 296 293 286 278 281 285 280 290 288 291 287 287 287 283 281 281 285 280 280 279 283 286 283 283 282 280 285 282 291 288 287 292 291 292 292 286 287 288 281 287 292 292 293 297 296 293 294 295 291 287 291 289 279 281 281 281 276 275 275 275 279 282 282 281 288 299 301 305 307 310 311 311 311 312 313 314 316 318 320
297 298 294 301 306 306 305 303 299 295 288 282 280 279 283 285 289 289 290 289 289 286 282 283 281 284 284 280 282 285 286 281 285 282 280 283 279 288 288 290 289 293 293 292 287 286 290 281 284 292 292 293 293 292 285 289 293 294 292 291 290 286 279 280 281 281 280 273 275 276 281 280 286 295 302 303 306 308 310 310 311 312 312 314 314 316 317 318
294 293 292 304 305 307 306 303 296 292 285 279 282 282 287 285 288 291 293 291 287 285 284 283 286 280 284 284 286 284 287 286 285 284 285 285 283 289 289 292 289 291 293 293 290 292 285 288 280 287 293 292 286 289 287 288 285 285 286 285 288 290 289 287 287 283 281 275 274 272 276 278 284 294 304 305 307 309 311 311 312 312 313 314 315 316 317 319
296 292 294 307 307 308 306 299 290 285 283 286 286 284 286 284 289 290 292 292 290 293 288 286 286 282 284 283 283 287 286 287 285 283 285 285 284 278 290 291 292 290 293 292 291 291 286 286 282 285 286 286 286 290 289 290 289 286 285 282 284 285 284 281 279 285 285 280 276 276 275 278 288 298 306 307 309 310 312 312 313 313 313 314 315 316 317 318
292 286 291 306 308 307 298 286 286 289 286 284 283 287 286 293 290 290 291 293 291 288 293 289 288 286 286 285 286 286 287 285 285 284 286 283 286 285 288 294 293 294 291 287 289 293 292 288 285 282 284 286 289 293 294 293 291 289 289 286 287 285 283 277 277 280 285 283 285 282 278 282 290 299 302 307 310 312 313 313 313 314 314 315 316 317 317 319
292 289 301 307 308 303 294 285 288 286 285 288 292 291 293 291 289 291 289 291 288 291 289 288 288 286 288 287 287 288 289 285 287 284 285 286 287 289 291 293 294 294 294 290 293 293 306 286 284 285 288 290 292 293 293 293 293 291 290 288 287 286 285 282 279 280 282 283 282 281 279 278 291 302 301 307 311 313 314 314 314 314 315 316 316 317 317 319
292 292 295 305 308 303 289 282 282 284 286 289 289 288 292 290 289 288 288 290 288 289 288 289 291 291 287 291 289 287 291 279 286 287 285 288 286 292 292 293 295 292 291 290 289 295 289 288 286 280 281 283 287 287 288 291 291 287 285 288 287 287 289 287 287 284 283 282 284 281 276 277 293 302 300 307 310 312 313 314 315 314 315 317 317 317 319 321
292 295 295 299 304 298 285 287 284 284 285 285 285 284 286 287 291 291 291 289 292 291 290 288 290 292 290 292 291 292 292 288 284 290 291 289 288 293 293 293 295 292 295 297 304 300 290 287 284 281 278 276 277 279 281 284 285 286 290 289 289 288 288 287 283 280 281 283 285 281 277 284 294 300 302 306 308 309 310 312 313 316 317 317 317 319 320 322
290 283 290 294 297 295 291 293 288 285 283 284 283 285 287 285 289 292 291 289 291 292 291 291 291 292 289 289 288 288 289 292 289 288 289 288 289 292 293 294 295 294 299 303 302 298 290 292 286 282 281 279 281 285 288 287 287 284 287 289 287 289 287 287 283 281 280 280 282 284 292 291 297 299 301 303 307 307 308 311 313 315 316 318 319 320 321 321
293 285 286 284 290 290 286 287 285 286 284 288 282 285 281 282 286 287 296 288 293 292 292 291 291 289 289 288 285 287 290 290 292 290 289 288 291 292 294 294 295 297 304 302 307 295 293 289 289 288 288 287 288 292 290 288 286 286 287 287 286 288 288 286 283 281 285 283 281 283 291 294 294 301 302 303 306 308 310 312 314 315 316 318 319 319 318 321
285 289 290 292 286 283 284 285 286 285 286 286 283 286 283 283 284 283 289 293 295 294 285 290 290 290 290 288 289 284 288 290 291 285 291 291 291 293 292 294 294 299 302 298 302 295 291 286 290 291 291 292 292 292 291 290 288 288 288 288 288 287 288 286 284 285 287 283 280 287 291 294 294 302 305 306 308 309 310 312 315 316 317 317 319 319 320 320
292 291 291 296 285 288 287 288 288 285 284 285 284 285 283 283 283 287 288 287 288 291 292 280 287 292 292 293 291 287 289 285 283 291 292 292 294 293 290 293 294 297 299 298 301 298 292 285 291 290 288 291 292 293 291 290 289 289 289 288 289 288 287 288 287 288 289 286 287 292 292 293 296 303 307 309 311 312 312 314 315 315 316 317 318 319 320 320
286 286 285 292 291 289 289 289 287 285 283 287 284 285 284 284 284 286 289 290 284 289 293 288 290 294 294 294 293 289 292 292 291 286 295 294 292 292 292 291 290 295 297 296 298 297 292 284 293 291 284 289 293 296 292 289 288 287 288 289 289 288 289 289 289 289 289 290 294 294 292 293 296 301 306 307 309 312 313 313 315 315 316 316 318 319 319 319
292 295 294 287 285 287 289 288 287 286 285 285 284 286 287 287 286 291 291 295 291 288 292 290 293 294 294 294 294 292 294 296 296 295 296 295 290 297 292 293 295 291 294 294 295 296 293 287 291 288 282 284 293 292 292 290 289 287 287 287 287 287 286 288 288 289 288 288 291 290 289 291 297 305 305 307 309 311 311 312 313 314 315 316 317 318 318 318
294 297 297 292 284 290 286 288 289 289 285 285 285 287 287 290 293 295 287 295 297 296 296 295 295 293 291 293 292 294 297 299 299 299 299 299 300 299 300 298 296 293 292 293 294 290 289 285 282 282 282 281 288 291 291 288 286 283 282 286 288 288 287 288 290 292 291 290 286 283 287 291 302 306 307 304 308 309 311 312 313 314 315 316 317 317 318 318
Wind_Speed
15 15 14 13 14 14 13 12 12 11 11 11 11 11 12 12 14 14 15 15 17 17 18 18 18 18 19 19 19 19 16 11 15 14 14 17 9 16 13 11 9 9 9 4 2 1 5 3 4 1 3 3 3 2 3 3 3 2 4 5 7 6 8 5 7 5 4 5 8 2 3 3 5 3 3 3 3 6 5 6 2 7 8 4 7 21 19 18
15 15 15 15 15 15 15 14 14 15 14 13 11 10 11 12 13 13 14 15 16 17 17 18 18 18 19 20 19 19 13 11 14 16 20 11 14 18 15 17 15 12 6 3 5 5 2 3 5 2 3 2 2 3 5 2 5 6 2 6 12 6 6 3 3 5 3 8 10 1 5 4 7 3 1 1 2 2 6 4 4 8 8 11 15 19 20 19
15 15 15 16 16 16 16 15 14 14 14 14 15 14 11 12 13 13 14 15 15 16 17 17 18 18 19 19 17 15 12 14 11 12 14 9 22 17 18 18 16 13 6 6 4 4 7 2 2 1 2 3 2 5 4 4 5 6 4 8 10 4 4 7 6 9 7 6 11 6 6 6 4 2 1 1 3 3 6 6 3 6 9 14 16 19 18 18
15 14 14 15 15 15 15 16 15 15 15 15 14 15 15 13 13 13 14 14 15 15 16 17 17 18 18 18 15 11 9 9 7 7 3 7 7 14 18 20 16 12 7 7 1 5 2 4 5 2 2 6 3 3 4 6 4 2 6 8 4 5 5 7 7 8 10 9 7 5 5 7 6 2 0 3 0 2 4 8 13 12 14 15 18 19 18 18
15 15 15 15 14 14 15 15 16 16 16 15 15 15 15 16 14 14 14 15 14 15 16 17 17 17 18 18 15 7 9 4 3 1 5 14 15 10 14 17 15 6 7 0 2 3 3 2 1 1 2 4 4 2 5 5 4 1 8 5 2 2 8 9 9 10 9 12 5 4 4 7 8 6 2 2 4 3 5 8 5 16 17 19 18 17 16 18
16 16 15 15 15 15 14 14 14 15 16 16 16 16 15 16 16 15 15 14 14 15 16 16 17 17 17 16 9 4 1 4 2 3 17 21 13 19 6 14 14 4 1 2 2 1 0 2 3 1 2 3 6 8 2 9 4 8 6 3 5 6 4 2 6 10 10 9 6 2 2 3 1 3 2 3 2 4 5 5 14 19 21 22 20 18 15 16
16 16 17 16 16 16 16 15 14 14 15 15 15 16 16 16 15 17 16 16 14 15 15 15 16 17 17 13 6 5 3 12 7 4 20 17 19 20 15 5 8 3 1 3 3 3 3 3 4 4 1 3 5 7 8 4 6 7 8 3 7 5 10 9 10 9 5 7 6 4 5 5 2 5 0 4 3 6 8 7 14 14 15 18 18 19 23 20
15 16 16 17 17 17 16 17 17 15 15 15 15 14 15 15 15 16 16 16 15 14 15 15 15 16 15 8 7 2 6 11 13 7 18 17 17 18 16 4 2 3 3 8 6 6 2 3 6 2 4 5 2 8 7 9 8 10 10 7 6 6 6 9 12 14 9 9 8 6 6 9 5 3 2 5 4 6 5 6 12 13 14 13 17 15 14 13
16 16 16 16 16 16 17 16 17 18 16 15 15 15 15 14 15 15 16 16 16 15 14 14 14 14 12 6 6 8 10 15 8 14 10 14 15 17 13 5 2 6 7 6 5 5 4 4 5 6 4 6 9 5 8 7 10 7 8 6 7 8 6 8 12 14 14 7 6 6 9 10 9 4 2 7 5 4 7 12 13 14 15 14 14 15 17 14
15 16 16 16 16 15 16 16 16 16 17 17 15 15 14 14 13 14 16 16 15 15 14 13 13 12 8 6 7 10 9 7 6 6 10 14 17 16 11 8 5 5 3 6 5 7 8 5 7 4 6 8 5 6 3 9 4 3 8 8 8 11 10 8 9 11 7 5 5 6 10 7 7 5 6 3 4 3 8 12 13 14 14 13 11 8 6 11
16 16 16 16 16 16 15 15 16 17 16 18 18 15 16 14 13 14 14 16 16 15 15 14 12 8 6 5 7 12 5 10 6 8 14 16 17 13 12 11 9 7 7 5 9 10 10 8 6 4 3 5 2 4 5 2 4 9 5 4 9 12 12 10 11 12 4 4 7 8 11 8 4 4 7 4 2 3 11 12 12 11 11 11 12 14 16 14
16 16 16 16 16 15 15 16 16 17 18 17 18 18 16 15 16 15 15 15 17 16 15 13 12 4 5 6 9 14 4 3 12 14 15 16 14 12 13 11 11 10 8 8 6 9 10 10 6 3 5 2 6 4 9 6 6 5 7 10 10 7 9 12 12 11 5 5 5 6 6 6 3 5 5 7 3 1 11 11 12 11 13 15 15 14 13 11
16 16 16 15 16 16 16 16 16 17 18 18 18 17 16 15 15 16 14 15 13 16 15 14 10 2 3 11 13 20 16 15 18 20 19 14 12 13 13 12 12 11 9 9 9 6 9 9 7 6 10 5 5 3 4 6 4 4 5 4 5 5 8 11 8 10 7 3 4 6 4 8 5 6 4 4 3 1 10 10 11 12 14 12 14 13 12 10
17 17 16 16 16 16 16 16 17 18 18 18 18 17 17 16 16 16 16 15 16 16 15 14 7 3 5 11 11 11 10 8 12 15 17 15 12 16 13 13 11 11 8 8 11 9 6 7 9 9 6 6 4 4 9 4 3 5 2 4 5 4 6 5 5 7 9 6 6 5 7 5 6 7 7 6 2 4 9 11 13 14 11 10 12 11 9 5
17 17 17 16 17 17 17 18 18 18 18 18 18 16 15 16 16 17 17 14 13 13 14 10 2 2 5 9 11 17 19 15 14 20 20 14 12 13 14 9 9 8 7 6 6 5 6 5 5 7 6 4 7 8 9 3 1 2 2 6 1 8 4 6 8 10 12 5 7 6 8 7 7 9 7 6 2 4 12 11 12 15 15 12 10 10 9 11
18 18 17 17 17 17 17 18 19 18 18 18 17 15 15 16 16 16 17 15 14 14 7 4 3 5 5 12 5 8 6 7 13 18 15 10 12 13 14 9 10 12 9 5 5 6 6 3 4 4 4 4 6 5 4 4 4 2 5 2 5 5 6 3 5 6 13 10 5 11 6 3 3 8 7 2 4 10 13 12 13 13 13 12 10 9 11 12
19 18 18 17 17 17 18 18 18 18 18 17 17 15 15 16 18 17 17 16 8 5 4 2 2 3 3 6 6 11 9 6 6 6 8 9 12 13 10 9 8 8 6 6 7 5 3 3 2 3 4 7 3 3 5 7 5 4 1 6 3 6 4 5 3 4 6 10 6 3 5 3 1 4 1 4 10 14 14 13 12 11 11 10 9 10 11 11
18 18 18 17 16 17 18 18 19 18 18 17 15 13 13 17 19 17 10 5 1 3 5 5 4 5 10 11 11 10 2 5 2 7 10 5 12 11 10 7 6 7 6 5 3 6 3 2 3 4 3 7 8 8 10 13 9 5 3 3 5 2 7 6 7 4 3 4 9 4 5 5 2 4 3 2 10 15 16 15 13 11 11 9 9 10 11 10
18 18 18 17 17 17 18 17 16 18 18 16 13 14 16 17 9 2 1 1 2 0 1 4 7 7 8 4 8 8 5 7 12 10 6 8 7 8 8 7 7 3 3 3 3 7 2 1 3 4 12 11 12 10 9 2 6 7 5 5 4 6 4 5 3 2 7 4 5 6 5 7 3 5 4 4 6 15 12 10 10 11 9 8 9 10 10 10
18 18 18 18 17 17 19 19 16 15 17 8 5 5 4 4 3 1 1 3 5 7 7 3 11 8 13 19 10 4 13 12 8 3 6 6 7 9 9 7 6 3 3 5 3 8 4 8 10 13 8 8 8 8 6 7 4 5 5 4 7 6 4 2 3 4 5 4 7 8 8 9 5 9 7 8 7 11 13 12 11 11 11 11 12 11 10 11
18 18 18 18 20 18 19 19 17 13 14 4 4 4 3 2 2 3 4 7 8 12 13 15 12 13 13 16 13 10 12 12 7 11 10 2 8 8 8 8 6 7 7 4 3 1 7 8 12 6 6 6 8 7 6 7 9 7 5 6 8 6 8 4 5 5 6 6 5 7 9 10 7 7 9 8 14 12 13 12 12 12 11 11 14 12 11 9
17 17 18 17 18 19 19 17 17 13 11 2 2 3 2 3 3 1 1 8 8 10 12 14 13 14 13 20 17 8 9 10 20 17 8 8 6 10 5 10 8 9 3 4 5 4 11 14 6 5 4 4 5 8 8 10 9 10 8 5 3 6 4 8 10 8 5 6 8 4 9 10 9 10 9 13 14 12 15 20 18 16 14 13 12 12 12 11
17 16 17 17 17 17 19 19 16 14 2 1 1 2 4 3 3 1 2 7 14 12 12 13 14 14 16 17 11 5 9 10 10 15 7 1 6 11 9 11 9 7 5 9 10 8 8 8 7 5 5 5 5 8 10 10 7 6 7 6 7 3 4 6 9 6 5 5 4 5 9 5 2 5 5 1 3 9 4 1 9 15 21 18 17 17 15 13
17 16 16 17 17 17 18 18 16 5 0 3 4 4 4 4 5 3 2 4 9 11 9 12 14 14 15 13 3 13 12 9 7 15 8 5 6 10 8 12 10 7 11 12 12 9 6 3 7 5 7 8 7 8 11 10 10 8 8 6 6 7 6 7 3 2 1 7 7 2 1 2 5 9 3 2 4 8 6 7 5 2 1 6 8 7 10 17
17 17 16 16 17 18 18 17 4 2 4 4 4 5 5 3 4 2 1 4 4 8 6 11 9 9 15 5 6 4 9 10 13 12 4 4 2 12 9 5 6 12 13 11 9 9 9 5 13 10 11 10 9 10 14 11 8 10 9 8 8 6 8 12 1 3 2 5 8 9 0 4 5 12 12 7 5 5 6 10 7 6 7 9 9 8 7 7
18 17 17 16 17 17 16 5 1 4 8 4 1 0 2 1 1 4 1 1 7 4 2 4 7 7 5 7 8 8 5 9 9 10 7 7 6 4 5 7 7 14 15 11 10 5 6 5 14 15 11 11 12 10 11 12 11 8 7 9 11 10 9 7 1 2 3 3 5 10 11 3 1 4 5 6 7 8 4 5 8 8 9 9 9 8 10 11
18 18 16 16 16 16 7 2 3 6 5 2 1 2 2 2 0 0 2 2 5 1 5 4 3 2 3 5 10 8 3 8 8 10 9 9 7 2 6 8 7 4 7 4 3 9 8 12 13 13 13 13 12 12 10 13 10 10 3 6 9 10 11 6 1 2 6 3 5 5 6 8 3 4 4 2 6 7 6 6 7 7 8 8 8 8 10 11
19 17 16 16 16 12 4 4 5 3 5 6 3 3 1 1 1 1 0 2 3 2 3 2 5 3 3 6 14 10 6 3 3 8 12 5 7 5 3 5 8 12 11 9 14 3 11 10 12 15 14 12 14 9 5 11 10 5 5 5 6 7 7 3 3 5 5 3 9 4 1 4 1 1 4 7 9 6 8 9 9 9 8 8 8 8 10 10
20 19 18 17 18 17 8 3 2 5 4 2 3 3 1 1 0 1 1 3 1 2 1 0 7 1 3 9 10 9 8 1 4 2 8 4 6 1 2 5 2 8 10 11 5 4 8 10 13 14 12 13 7 7 8 10 10 10 4 4 5 4 1 3 5 6 4 2 8 5 4 5 0 1 8 2 4 9 11 13 10 10 9 9 10 9 10 10
21 21 21 20 14 5 3 1 5 7 6 4 5 3 0 1 1 1 1 4 4 3 1 5 4 7 3 8 6 8 9 3 3 4 4 6 4 5 5 2 1 2 10 9 5 7 9 8 8 10 13 9 6 6 9 7 11 2 6 7 6 3 2 2 4 4 1 5 8 9 5 6 4 7 12 11 10 17 12 7 7 8 7 8 8 10 11 12
24 25 23 20 8 3 2 5 7 9 7 5 2 0 1 0 1 0 3 2 2 3 2 2 2 4 9 6 2 6 8 7 6 3 2 5 3 8 2 4 3 4 3 6 8 10 6 12 9 6 9 7 6 6 7 8 6 6 5 8 3 9 1 1 4 2 5 5 7 6 6 4 5 5 7 13 13 16 17 17 17 15 14 12 12 12 11 11
24 24 24 14 8 5 6 5 3 1 2 4 1 1 1 2 1 1 3 1 5 0 1 3 2 4 3 3 3 5 6 5 8 2 3 5 5 8 9 7 8 7 7 10 11 8 7 11 7 6 9 14 9 6 7 10 9 7 5 6 9 3 3 4 4 6 5 6 6 4 5 1 6 7 18 22 14 12 18 19 18 19 16 14 13 14 12 10
24 23 26 11 6 5 9 12 5 4 3 1 1 2 1 1 5 3 3 2 1 0 0 3 7 5 4 2 3 7 9 7 3 6 4 2 5 7 6 6 1 1 6 9 7 5 4 3 9 8 9 12 12 12 7 10 12 9 8 7 8 6 5 4 2 1 1 5 6 1 8 4 3 5 11 21 20 18 17 12 18 21 19 17 14 13 12 11
24 22 10 4 5 8 6 6 6 3 3 1 3 1 1 3 4 2 3 2 4 2 4 3 4 6 6 5 4 4 6 8 2 4 5 2 5 6 8 8 9 7 0 6 7 9 7 7 10 14 9 13 13 12 9 2 6 10 3 8 7 4 3 2 3 7 8 6 4 2 4 3 6 7 13 21 24 13 10 10 11 13 14 13 11 9 9 10
25 15 6 4 3 6 8 7 5 6 3 4 2 1 1 4 3 1 1 2 1 4 4 3 2 4 5 7 4 5 3 2 8 7 6 4 3 5 9 10 12 5 2 10 5 4 11 4 2 10 2 14 13 9 6 5 4 7 4 6 5 10 5 1 6 6 3 2 2 0 3 6 6 1 3 2 8 11 13 14 13 10 8 8 9 10 11 11
14 7 4 3 3 3 8 6 4 3 5 2 1 2 5 3 2 0 2 0 3 4 9 14 9 4 4 3 3 4 6 5 5 4 3 6 6 8 8 3 7 11 4 6 4 5 6 5 4 12 6 18 15 11 9 9 8 6 8 11 8 5 6 2 1 0 4 5 5 0 2 4 6 6 10 10 14 11 13 13 13 13 12 11 11 11 11 11
8 7 4 2 2 3 7 6 5 5 4 2 1 3 3 2 7 3 2 2 4 4 7 5 1 1 1 2 2 8 7 8 2 6 3 3 6 9 8 4 6 9 11 3 3 2 8 3 5 12 12 12 16 11 8 8 6 5 8 5 3 3 6 4 4 1 2 5 5 1 5 4 1 3 2 8 13 11 14 15 14 13 12 13 12 11 11 11
8 5 6 5 5 6 6 7 8 4 3 2 4 9 2 5 1 5 2 2 4 3 4 2 1 1 1 2 3 4 6 6 5 6 4 7 3 6 7 5 9 11 11 11 0 3 5 3 4 12 11 8 12 12 10 6 8 8 6 6 8 6 6 3 4 2 2 2 2 1 1 3 4 3 4 5 12 12 12 12 13 13 14 14 12 11 10 8
4 3 4 2 1 7 6 9 6 5 3 4 4 7 2 7 4 4 5 4 4 3 3 2 2 1 0 2 3 2 6 5 3 6 5 4 4 6 10 6 7 13 11 8 5 4 1 4 3 8 12 7 6 10 12 12 2 0 5 8 5 6 4 2 5 4 8 3 2 5 1 4 5 9 13 13 13 16 16 14 17 20 20 16 14 13 12 11
5 3 1 4 3 5 7 6 4 4 3 5 3 6 4 8 8 4 4 3 4 3 4 4 4 1 2 2 2 1 1 8 7 5 8 2 6 3 11 11 6 9 13 9 9 3 3 2 4 7 9 8 7 8 12 10 8 5 5 5 3 3 2 5 1 4 6 4 4 3 2 4 5 7 14 16 15 16 21 20 16 15 16 15 14 14 13 13
4 3 1 2 4 5 6 3 3 5 4 3 5 7 10 7 2 3 5 8 6 6 8 6 1 3 1 3 3 1 1 3 5 4 5 4 10 1 10 12 11 9 9 9 10 4 2 0 4 4 6 9 6 3 6 8 8 6 6 5 6 7 3 5 6 1 3 5 3 4 5 7 8 3 13 17 16 17 18 19 16 16 16 14 12 12 14 13
4 4 1 3 4 5 6 4 4 2 3 6 5 3 6 5 7 8 8 7 11 7 7 7 8 7 2 4 6 2 2 3 3 6 5 5 7 7 4 16 13 7 6 8 10 7 6 1 5 5 8 8 3 8 8 9 5 5 8 5 6 5 6 5 4 4 1 1 4 5 5 7 4 2 7 11 16 17 17 17 17 16 17 15 13 13 13 14
4 5 3 1 5 2 1 4 2 3 5 5 5 10 9 8 4 4 7 3 4 7 5 8 6 3 4 5 4 3 5 2 3 3 3 6 7 15 7 15 13 9 5 3 8 10 5 1 5 1 3 3 2 1 6 5 4 1 2 1 6 5 6 5 3 5 5 1 2 1 1 3 2 2 5 13 15 17 15 16 16 13 11 11 13 15 15 13
4 5 3 2 3 4 2 4 3 4 6 7 8 11 7 11 10 9 6 5 5 2 3 2 2 5 4 4 4 4 4 1 4 5 6 6 6 13 18 9 14 9 5 5 5 5 5 3 7 5 4 3 2 2 2 1 3 3 2 2 4 4 6 4 6 1 3 4 7 8 6 3 5 6 3 12 12 12 13 7 11 14 10 12 13 13 14 14
5 3 4 1 2 4 3 2 3 6 7 9 10 12 11 4 5 8 5 6 3 5 1 3 5 2 4 3 6 6 5 6 2 5 7 8 7 8 14 8 15 13 11 10 7 1 3 1 4 9 11 11 13 14 14 12 8 2 1 1 4 6 6 5 5 1 2 1 4 4 2 6 7 3 6 9 10 7 5 7 4 7 16 14 12 14 15 15
3 6 1 1 2 3 3 2 4 5 7 6 8 7 5 5 4 5 8 8 8 5 3 3 5 3 6 5 4 3 6 8 9 3 3 4 3 4 7 11 11 16 18 16 13 1 2 2 2 4 8 8 3 1 1 8 4 5 3 1 4 2 4 5 6 4 4 2 2 5 6 1 3 3 8 7 11 13 11 9 12 9 8 12 15 16 17 17
2 2 5 6 4 3 3 2 3 2 3 2 5 3 3 3 6 9 1 2 2 2 1 3 2 1 3 2 4 5 6 4 6 8 8 5 4 3 10 11 11 15 19 10 7 1 0 2 1 8 6 7 4 0 2 6 5 4 4 4 5 5 6 5 6 6 5 7 3 1 4 7 2 0 6 10 8 11 13 13 12 12 14 14 13 13 14 14
3 1 2 1 3 6 9 3 4 5 8 3 4 2 6 8 6 3 5 5 5 1 1 2 6 7 9 5 3 2 5 6 6 3 3 2 3 7 5 7 6 10 11 3 1 2 2 2 2 2 3 4 2 4 5 4 5 7 6 2 3 5 5 5 5 4 6 5 7 4 4 7 4 6 9 13 14 14 14 15 14 13 10 8 11 14 16 16
1 3 4 3 5 6 3 13 15 9 10 3 3 2 4 5 9 4 2 4 2 2 5 1 2 4 8 10 3 1 2 3 5 3 1 3 6 7 3 2 5 5 4 2 2 0 1 0 2 1 2 3 4 2 4 8 3 4 4 4 5 6 6 5 3 6 7 4 7 6 5 2 3 8 12 14 14 14 10 8 9 11 13 14 14 15 15 15
4 5 5 3 5 9 9 7 7 6 4 3 2 4 4 2 6 6 2 4 2 1 4 3 4 7 5 3 1 1 2 5 4 3 3 4 12 3 3 3 5 4 5 0 3 2 4 3 4 1 3 2 4 4 2 7 8 5 4 3 2 4 4 4 4 4 5 1 0 7 8 5 0 3 2 2 4 7 10 13 15 14 14 16 16 15 14 14
4 3 5 8 10 5 7 7 9 8 3 2 2 4 2 4 6 6 8 3 4 1 1 3 6 9 3 3 3 4 5 4 5 8 8 2 4 5 4 1 5 8 7 5 8 2 1 2 2 3 4 2 1 2 4 2 6 5 5 5 3 5 3 1 2 4 3 3 1 4 5 3 1 4 6 4 6 12 15 12 11 10 12 14 15 14 13 13
5 6 6 5 4 5 7 9 8 5 4 3 2 6 4 8 12 10 4 4 4 6 2 3 5 3 5 6 7 5 8 10 12 10 9 8 8 11 9 9 9 11 7 8 2 2 2 1 2 3 6 0 4 2 3 5 4 1 6 6 4 1 1 1 1 2 4 9 6 6 8 6 8 8 10 4 6 7 10 13 11 12 13 16 17 15 14 14
Wind_Direction
341 341 339 333 333 330 327 325 321 315 322 324 322 323 323 325 326 327 326 326 325 324 324 323 324 323 324 322 320 318 330 327 314 308 297 251 229 240 244 234 254 257 266 278 256 291 290 280 265 208 205 124 241 182 227 195 193 148 206 194 232 206 213 197 213 186 204 213 256 286 273 217 262 288 258 350 21 80 47 41 353 17 33 73 100 137 132 131
342 341 340 337 333 333 333 333 330 330 327 321 316 314 318 320 321 320 322 326 324 321 322 326 325 325 326 326 324 324 332 313 301 289 260 234 205 223 234 244 249 255 276 238 217 216 258 277 238 156 173 204 203 219 154 247 170 191 191 167 229 191 224 165 210 238 244 254 268 247 302 263 256 164 245 58 266 86 76 32 17 71 57 82 121 131 131 136
346 345 342 338 334 331 330 330 329 329 328 325 324 318 313 312 317 316 320 322 323 322 324 325 327 328 329 328 324 333 328 312 304 268 268 252 227 228 225 234 237 253 236 220 210 202 205 236 14 145 203 217 253 220 177 252 178 220 180 216 231 197 213 222 237 257 243 256 280 304 313 275 253 184 80 181 228 103 136 133 45 110 130 130 135 138 135 139
341 341 339 337 336 334 331 327 327 327 326 325 322 323 320 310 309 315 313 319 318 319 323 324 326 329 330 329 335 333 329 299 281 251 261 276 249 227 219 222 227 244 212 222 183 183 244 304 308 315 249 202 266 213 209 228 183 236 188 221 223 194 229 235 224 241 261 261 269 297 296 304 295 267 119 193 154 218 225 183 162 174 147 141 147 143 141 145
336 336 334 333 333 332 331 331 329 327 324 322 321 320 319 315 310 307 312 313 314 315 324 325 326 327 330 331 335 339 317 6 249 267 343 350 338 286 209 208 213 214 195 144 354 276 270 272 15 318 224 231 223 246 236 240 209 283 227 216 218 188 215 233 234 245 253 266 273 304 325 271 290 291 153 184 226 231 211 210 155 145 145 144 153 152 145 150
334 334 332 330 328 325 325 325 325 325 323 322 319 317 316 316 312 310 308 307 308 314 319 327 326 326 328 334 319 309 30 199 330 336 6 359 352 351 200 177 195 178 140 237 212 342 313 260 160 211 223 199 213 207 230 223 175 237 260 237 213 218 216 222 234 241 241 256 271 280 237 302 3 270 252 151 181 245 240 160 141 149 159 157 149 151 154 156
333 332 331 329 326 327 327 322 320 319 319 316 317 315 315 314 312 310 307 303 303 310 314 324 326 327 329 330 294 241 210 275 316 286 353 8 9 1 351 189 168 158 157 208 219 203 214 221 168 204 241 238 253 215 240 237 220 234 246 236 245 227 235 243 247 238 227 242 250 242 286 267 307 310 269 332 266 256 257 157 154 145 131 137 149 163 163 168
332 331 330 329 326 328 325 325 322 318 319 317 315 315 312 312 313 311 310 306 304 304 313 318 325 327 333 331 334 270 242 255 251 340 331 356 357 354 348 340 176 145 182 219 204 211 204 213 208 159 215 192 203 194 223 234 234 226 242 237 254 247 238 238 241 253 236 242 254 258 259 260 228 237 348 284 283 302 21 103 117 129 130 135 145 157 163 164
332 330 331 329 329 326 326 325 320 316 315 314 312 311 313 313 313 314 311 307 302 302 304 315 320 326 332 307 282 289 247 242 347 310 336 353 345 339 346 304 187 166 211 218 210 214 158 234 220 202 210 210 255 237 221 194 249 229 233 237 246 248 242 233 241 240 244 247 242 260 250 252 234 203 244 259 273 299 111 115 121 127 136 147 157 160 165 164
331 331 331 330 328 328 325 323 321 317 316 311 309 308 310 312 314 313 311 308 303 301 302 306 315 329 329 310 288 263 261 299 295 328 334 342 333 332 335 336 353 283 195 223 209 195 197 208 201 200 249 285 253 241 232 207 238 178 213 231 237 245 248 247 231 243 236 221 221 224 250 248 237 176 277 290 252 130 119 129 134 138 144 147 142 130 84 57
333 331 330 329 328 329 328 325 323 320 316 312 308 305 304 308 311 311 311 308 303 296 297 301 310 327 328 323 283 254 278 302 313 328 327 322 322 321 313 318 311 299 265 241 207 196 217 228 251 314 269 234 308 253 229 235 227 252 248 249 241 245 246 248 249 248 188 256 209 215 249 231 227 168 213 228 281 53 128 136 136 136 131 111 83 73 69 68
332 331 329 327 328 328 328 327 326 324 320 316 311 307 302 300 303 305 305 306 304 298 294 298 305 311 278 259 247 241 221 317 324 308 307 310 304 300 297 293 291 273 277 278 241 214 210 220 226 234 222 66 234 264 289 239 237 241 227 241 257 258 255 243 240 246 202 249 194 194 255 260 182 210 205 203 220 100 133 137 131 112 91 83 84 95 100 115
332 332 328 328 328 329 327 326 327 324 324 319 312 305 303 298 296 301 302 302 302 300 297 295 302 280 295 280 237 249 273 287 290 294 292 287 292 286 281 283 281 275 255 254 273 249 220 214 215 233 247 264 269 222 285 317 267 229 223 205 262 265 255 247 236 241 236 224 170 136 248 244 263 258 261 227 176 115 120 123 115 97 97 107 113 115 128 138
334 332 331 330 329 327 326 325 324 325 321 321 316 310 302 299 297 297 298 297 297 297 295 293 296 285 264 262 272 261 264 263 268 280 271 277 288 287 290 279 279 277 253 241 250 257 253 227 209 226 251 241 254 319 320 321 320 217 236 168 206 224 252 258 224 226 236 203 196 162 242 269 273 277 271 281 171 173 129 121 118 122 112 121 130 133 130 96
335 334 334 331 330 328 328 322 325 323 322 315 316 314 309 301 297 294 294 295 292 294 292 300 323 350 275 273 267 268 247 246 251 248 251 256 260 285 277 282 273 262 262 255 253 244 225 220 196 218 244 207 239 272 284 291 230 281 222 238 253 191 275 259 223 210 219 241 175 155 245 227 236 251 258 247 242 122 122 118 125 134 140 136 128 111 100 113
337 337 333 332 331 330 327 327 328 326 318 315 314 315 310 301 296 290 286 281 285 287 287 284 254 194 282 280 251 325 298 227 238 237 249 225 230 235 258 282 298 297 289 280 236 233 238 228 210 198 248 260 216 195 257 315 300 218 181 246 213 161 236 264 239 213 212 223 212 183 224 152 269 242 249 311 105 118 123 124 135 145 133 130 136 134 132 129
336 335 334 332 332 332 329 329 330 325 319 315 312 311 308 299 291 286 280 277 273 280 264 237 246 159 257 229 304 310 272 237 252 264 245 198 216 227 253 273 275 284 287 285 268 242 219 181 188 212 207 218 170 152 193 250 264 280 144 204 214 183 197 217 287 214 199 198 237 220 215 205 208 347 15 110 122 115 130 141 144 142 147 141 133 137 139 144
335 334 333 332 331 329 330 330 330 328 323 319 317 312 306 296 289 290 290 272 199 246 244 236 283 311 260 251 272 248 347 292 188 243 242 196 193 213 217 239 263 265 284 314 273 192 171 193 183 215 176 202 186 188 188 213 196 195 215 193 259 221 184 188 176 248 152 208 221 242 239 243 227 97 45 76 134 134 144 149 146 145 148 149 139 146 149 150
332 332 332 331 329 330 327 333 331 327 325 323 319 314 296 287 276 236 272 135 119 116 266 213 166 168 222 247 230 282 280 303 295 262 258 193 200 206 207 225 271 277 287 169 262 168 164 225 156 203 214 197 206 197 200 154 151 201 186 211 207 199 230 205 226 241 204 217 219 223 219 241 174 112 117 110 141 130 131 125 132 141 144 142 147 150 155 155
331 330 330 328 329 327 328 328 332 326 326 330 332 325 327 19 9 354 103 152 211 215 243 246 197 244 309 288 281 304 325 315 300 263 240 191 185 193 210 194 220 233 227 210 180 197 122 190 205 208 204 210 200 193 180 220 226 198 202 213 227 209 263 248 212 237 205 228 223 218 218 223 175 159 151 132 110 114 130 138 148 152 149 150 154 159 158 160
329 329 327 326 328 331 329 326 321 327 325 332 338 346 328 355 32 310 341 267 234 232 238 248 228 225 239 269 283 332 340 314 292 288 274 245 207 153 198 176 199 209 212 233 209 228 163 212 226 202 197 204 198 178 194 220 230 234 220 216 241 218 227 230 235 229 227 181 251 219 215 224 170 163 153 145 130 144 148 148 154 159 154 157 158 158 157 152
329 326 326 324 327 331 328 323 323 324 317 304 315 274 255 242 234 210 324 288 267 232 239 244 251 253 254 257 265 287 288 280 298 289 290 191 209 189 174 181 183 208 158 205 257 211 204 215 199 198 200 193 194 188 200 214 222 230 223 216 233 249 235 245 237 227 222 167 245 220 214 220 183 161 165 163 153 166 168 164 170 157 161 162 167 156 154 146
328 325 325 323 327 329 331 324 322 323 327 31 196 224 247 262 330 288 153 271 277 253 245 240 244 244 253 260 258 229 245 245 268 286 274 265 193 211 157 186 188 189 202 201 201 202 215 224 196 187 195 198 211 192 200 223 235 225 227 218 218 234 189 251 247 231 224 174 212 200 211 233 114 95 148 216 149 150 163 241 164 163 162 171 171 165 157 153
329 326 324 323 326 328 330 326 318 346 178 208 231 223 267 317 296 299 287 271 298 288 214 227 223 226 233 237 180 193 218 246 231 267 264 189 253 184 206 189 175 187 215 207 212 208 205 126 172 187 204 207 208 201 198 207 229 235 218 216 213 223 238 211 244 27 239 243 234 182 147 51 164 144 153 66 104 103 121 127 138 161 113 134 138 143 158 151
328 326 326 324 326 328 332 320 335 300 303 268 223 240 244 275 294 151 213 297 246 277 208 243 209 227 230 207 224 246 198 235 227 242 272 334 248 166 221 168 176 206 210 206 213 224 223 204 165 199 210 210 208 207 206 193 221 240 236 204 219 220 229 246 38 37 341 288 239 179 96 244 228 179 166 167 130 119 153 149 163 161 150 149 151 142 126 136
328 326 328 326 326 331 332 335 283 336 326 291 225 247 295 25 75 91 172 241 293 273 77 304 136 254 159 220 161 211 294 271 233 239 232 241 242 275 182 210 190 202 200 197 208 220 192 193 175 196 204 213 217 220 208 188 212 213 236 185 220 230 233 245 43 40 321 220 264 175 179 256 238 187 171 181 158 136 147 170 158 160 161 162 161 149 149 150
325 325 325 323 326 333 344 283 304 335 338 307 278 317 12 50 80 69 79 215 266 356 289 22 203 326 186 161 157 147 187 261 241 233 233 235 240 189 244 195 180 219 186 191 196 212 185 194 186 190 202 210 216 219 215 195 194 229 184 174 210 223 236 239 245 179 242 241 295 250 188 154 180 245 177 137 135 141 157 186 174 174 170 168 157 151 155 158
325 321 318 320 322 327 260 280 308 287 240 251 303 312 82 137 43 59 12 325 281 80 323 308 236 16 272 155 159 176 221 337 174 228 191 179 190 264 199 211 187 187 180 194 206 137 181 190 188 189 198 210 217 211 195 194 204 228 226 203 222 208 227 204 202 235 241 308 297 238 182 75 236 245 96 137 139 194 201 197 193 177 180 170 158 153 155 160
322 319 315 318 316 310 294 217 200 244 232 250 319 291 9 132 178 88 336 278 117 134 102 123 268 65 318 139 174 190 250 231 301 77 131 181 211 49 199 239 245 185 202 206 192 142 193 201 191 191 193 213 208 207 202 188 203 227 215 240 240 241 169 178 214 224 249 232 265 243 214 114 146 199 137 187 198 197 204 202 194 182 180 173 165 158 155 161
319 317 314 312 313 297 287 218 217 240 252 270 278 300 37 87 60 336 297 259 25 291 17 279 317 353 314 169 186 191 235 268 231 332 158 169 184 213 264 341 284 266 204 214 224 202 181 210 191 194 203 197 194 219 197 195 217 158 188 246 272 285 242 242 221 194 112 221 249 232 226 132 167 209 177 158 203 199 186 182 186 181 177 173 169 162 164 169
318 314 311 308 286 276 282 267 244 238 246 247 233 11 46 43 179 158 258 272 316 304 302 283 24 34 35 347 271 196 233 249 280 244 300 167 188 179 214 216 217 262 216 204 227 244 205 191 208 205 183 182 175 212 210 204 206 184 185 206 278 299 6 276 259 75 195 249 258 240 203 150 150 206 234 224 213 183 168 181 185 182 180 171 174 174 173 174
316 311 307 307 263 218 227 236 232 121 231 220 145 18 72 341 44 144 231 153 263 209 28 300 275 17 10 9 274 208 196 231 240 206 205 173 188 179 203 196 170 162 193 189 208 214 231 209 197 184 191 184 189 200 217 208 210 205 188 161 171 258 137 252 205 230 196 189 243 225 177 41 238 197 195 215 218 196 187 179 177 177 176 174 174 174 174 173
318 310 311 299 264 183 223 239 263 294 292 202 67 61 40 323 287 196 266 357 260 63 286 180 281 321 323 334 249 232 209 229 203 222 259 261 171 234 228 211 291 233 174 185 180 171 250 273 197 195 184 198 183 194 188 206 209 195 199 168 159 193 197 205 240 176 282 280 247 244 184 208 234 289 208 202 212 203 193 183 171 173 174 175 172 171 172 175
318 314 309 262 214 207 211 221 240 249 258 67 78 52 76 288 249 302 308 187 247 184 235 219 294 273 252 217 229 204 198 240 165 226 175 239 186 206 227 225 230 243 145 146 178 179 161 216 231 183 201 179 196 200 191 167 182 208 149 156 178 144 159 189 200 186 200 200 224 286 112 226 140 224 190 201 206 189 142 160 171 177 172 166 160 155 163 172
318 306 274 272 226 222 214 209 213 212 172 60 50 114 252 245 256 263 264 310 292 299 273 322 257 262 266 221 255 285 232 241 210 224 200 208 245 218 205 211 212 212 228 151 222 155 208 234 226 195 131 170 196 188 173 139 156 208 183 105 141 208 133 168 199 149 195 174 294 40 188 184 166 210 320 200 73 98 136 142 152 167 157 155 157 164 171 178
318 306 283 237 187 233 197 201 200 138 101 78 92 223 221 217 249 70 275 218 283 312 316 304 262 233 233 198 154 256 247 261 167 185 275 222 227 230 221 208 199 205 199 187 178 172 171 220 191 187 206 175 192 175 200 158 192 200 141 204 211 158 118 96 33 137 102 70 230 209 327 308 299 13 16 107 116 119 129 144 157 163 166 167 176 177 179 177
319 315 327 240 214 185 177 174 154 134 98 117 189 254 230 256 237 254 286 256 282 321 300 301 57 217 176 166 145 202 210 217 183 163 243 235 253 224 212 213 190 207 222 166 189 181 148 242 249 175 205 195 182 185 201 195 157 146 196 221 137 145 118 136 185 319 84 141 245 82 196 283 58 240 349 90 120 141 141 157 164 164 165 177 186 185 179 176
313 284 270 271 243 171 166 142 128 108 105 199 224 255 255 275 182 247 163 281 291 240 274 258 263 29 341 63 223 178 178 170 163 170 239 206 276 177 198 205 209 222 208 214 116 249 134 204 227 192 189 200 185 176 211 246 199 198 189 196 171 214 238 312 95 183 124 165 244 314 230 247 153 188 121 148 144 155 153 151 153 170 181 185 183 179 169 162
277 273 311 320 18 151 140 138 121 117 137 227 238 288 223 233 248 193 188 224 253 288 273 245 246 156 350 337 317 164 148 182 212 200 207 195 236 200 202 193 223 218 220 182 205 258 333 137 220 192 185 177 180 173 202 210 260 166 123 176 174 105 150 137 203 176 122 215 123 278 50 241 219 178 182 169 171 159 161 164 179 182 184 184 178 173 166 167
326 345 293 15 36 90 117 122 94 147 200 237 228 237 273 286 276 275 139 211 263 191 240 273 206 310 244 272 266 21 225 227 222 231 216 157 213 255 196 200 230 212 211 191 220 157 293 123 170 193 179 133 199 196 201 186 178 172 172 188 161 190 219 135 116 141 169 167 169 172 302 286 259 198 170 170 169 176 170 181 181 181 184 184 174 167 167 170
289 245 332 31 64 82 76 83 182 197 238 251 251 263 278 270 305 237 207 214 247 231 248 263 201 197 8 360 335 194 240 294 236 236 216 196 189 190 217 193 214 229 186 208 231 205 238 172 171 188 160 191 207 166 141 176 169 163 159 196 165 146 175 158 249 347 111 100 196 138 234 270 269 203 174 165 178 178 189 169 173 179 182 179 170 167 165 172
313 339 288 96 95 116 120 195 228 222 249 255 241 232 278 284 274 266 260 214 221 244 224 253 258 262 238 226 235 290 332 262 248 217 235 203 212 218 222 204 202 220 170 197 216 206 208 154 110 186 194 182 168 146 165 165 142 169 161 218 172 143 109 100 145 258 42 218 135 148 145 261 238 219 177 181 170 181 180 176 174 176 177 173 166 163 167 174
318 269 280 293 149 127 141 243 221 231 236 252 293 277 267 267 240 261 273 207 251 220 233 222 237 208 220 228 233 248 211 246 233 240 230 226 215 215 228 197 206 217 226 235 203 233 172 169 151 145 101 180 177 59 140 159 141 133 248 118 129 178 164 157 167 189 151 249 73 30 172 248 281 295 204 180 183 180 177 177 171 165 156 159 157 161 161 168
290 291 313 91 134 119 173 260 269 237 263 269 267 273 286 277 279 284 269 213 211 243 210 230 276 212 264 200 246 254 235 13 270 213 271 245 243 217 218 195 190 225 191 219 185 214 202 264 131 123 111 131 191 4 349 301 147 160 172 228 168 146 155 177 111 48 158 226 167 128 205 286 281 336 222 171 174 171 174 166 154 148 156 156 158 159 161 158
281 237 225 249 141 114 223 205 259 288 286 296 301 297 299 269 232 253 264 260 229 249 199 249 217 228 231 250 266 267 267 219 291 275 249 229 231 222 209 189 186 211 226 242 258 303 153 199 115 150 164 167 175 186 197 200 193 189 146 124 201 142 157 128 208 340 143 282 134 144 235 252 285 349 127 144 151 142 120 128 120 156 156 157 158 160 158 159
327 336 319 264 175 161 225 275 260 256 287 298 303 294 292 293 299 275 266 268 228 240 214 232 276 246 250 260 279 255 242 220 205 284 302 328 299 242 148 188 185 203 226 233 258 340 163 131 107 148 149 181 190 84 155 132 129 165 216 152 240 146 136 114 113 114 196 212 190 232 162 152 31 25 102 115 138 142 137 141 145 149 171 165 163 163 162 164
294 5 326 325 302 194 242 210 243 210 260 340 295 350 298 287 295 309 337 298 163 186 213 221 247 221 256 159 224 252 234 256 227 248 262 269 262 273 153 179 198 206 221 235 270 71 24 327 347 134 139 175 189 96 204 102 130 158 149 250 237 194 125 109 128 197 180 101 244 274 216 115 185 157 140 140 151 151 158 159 160 163 169 169 166 157 156 160
358 334 290 226 301 306 328 335 182 248 263 254 264 284 270 296 307 297 312 316 354 281 131 268 215 215 244 236 257 288 328 339 307 274 282 284 331 299 179 174 196 206 200 221 305 100 147 207 264 125 137 77 307 189 133 95 136 162 181 157 218 180 139 129 198 205 133 162 194 236 180 131 199 180 169 157 157 165 166 169 171 164 147 137 144 156 165 167
310 305 281 320 322 292 260 280 296 289 286 229 251 259 280 272 290 245 261 330 298 236 164 238 237 249 238 230 199 278 316 8 331 315 1 339 325 303 152 143 239 164 121 64 334 269 106 268 250 170 90 39 7 352 148 131 122 119 167 170 208 142 167 146 188 165 177 186 189 165 179 196 176 183 173 171 168 157 152 132 126 143 159 157 159 164 168 168
3 341 322 294 236 284 290 301 302 305 286 328 236 238 225 246 281 300 236 220 292 307 164 228 247 288 286 343 126 192 202 178 207 277 328 30 327 293 95 146 131 76 66 62 218 245 125 252 255 63 68 17 336 360 165 149 141 178 251 197 183 120 162 175 148 111 96 349 59 144 131 119 331 159 124 34 71 110 126 150 161 160 158 164 166 166 167 166
314 271 284 304 313 305 317 327 331 331 335 329 308 291 265 271 272 298 302 226 227 197 201 247 297 320 318 355 307 270 273 245 243 233 251 254 266 291 19 281 138 111 147 235 242 292 82 270 34 60 77 351 342 4 183 141 143 160 215 248 241 110 117 244 141 211 129 199 186 109 100 165 230 101 71 82 136 146 150 153 151 163 165 163 166 167 165 157
298 273 280 285 287 312 322 323 318 314 352 341 272 307 321 309 305 312 315 270 211 220 250 282 298 293 296 358 331 294 298 299 286 275 258 250 225 268 241 241 131 143 183 191 214 96 144 133 52 59 85 260 270 357 178 94 59 299 249 225 213 150 199 229 257 191 178 151 130 138 208 199 163 148 120 123 147 149 148 159 159 162 171 171 169 169 165 158